Litchfield, IL

2:56 PM CDT on March 27, 2017 (GMT -0500)
Litchfield

Weather History for K3LF - September, 2012

Change the Weather History Date:

Thursday, September 27, 2012

  Actual Average (KALN) Record (KALN)
Temperature  
Mean Temperature 65 °F -  
Max Temperature 71 °F 73 °F 89 °F (1998)
Min Temperature 59 °F 50 °F 42 °F (2000)
Growing Degree Days 15 (Base 50)    
Moisture  
Dew Point 58 °F    
Average Humidity 81    
Maximum Humidity 97    
Minimum Humidity 56    
Precipitation  
Precipitation 0.01 in - - ()
Sea Level Pressure  
Sea Level Pressure 30.14 in    
Wind  
Wind Speed 4 mph (NNE)    
Max Wind Speed 10 mph    
Max Gust Speed -    
Visibility 8 miles    
Events      
Averages and records for this station are not official NWS values.
T = Trace of Precipitation, MM = Missing Value Source: NWS Daily Summary

Daily Weather History Graph

Daily Weather History Graph

Search for Another Location

Airport or City:

Trip Planner

Search our weather history database for the weather conditions in past years. The results will help you decide how hot, cold, wet, or windy it might be!

Date:

Astronomy

Sep. 27, 2012 Rise Set
Actual Time 6:51 AM CDT 6:46 PM CDT
Civil Twilight 6:24 AM CDT 7:13 PM CDT
Nautical Twilight 5:53 AM CDT 7:44 PM CDT
Astronomical Twilight 5:22 AM CDT 8:15 PM CDT
Moon 5:17 PM CDT 4:21 AM CDT
Length of Visible Light 12h 48m
Length of Day
11h 55m
Waxing Gibbous, 94% of the Moon is Illuminated
Sep 27
Waxing Gibbous
Sep 29
Full
Oct 8
Last Quarter
Oct 15
New
Oct 21
First Quarter

Hourly Weather History & Observations

Time (CDT) Temp. Dew Point Humidity Pressure Visibility Wind Dir Wind Speed Gust Speed Precip Events Conditions
12:15 AM 64.4 °F 63.5 °F 97% 30.08 in 1.5 mi Calm Calm - N/A   Overcast
12:35 AM 64.6 °F 63.7 °F 97% 30.08 in 1.2 mi Calm Calm - N/A   Overcast
12:55 AM 64.9 °F 64.0 °F 97% 30.08 in 5.0 mi NW 3.5 mph - N/A   Mostly Cloudy
1:15 AM 64.8 °F 63.9 °F 97% 30.09 in 5.0 mi Calm Calm - N/A   Scattered Clouds
1:35 AM 64.4 °F 63.3 °F 96% 30.09 in 4.0 mi NW 3.5 mph - N/A   Clear
2:15 AM 64.8 °F 63.7 °F 96% 30.08 in 4.0 mi NW 3.5 mph - N/A   Scattered Clouds
2:35 AM 64.4 °F 63.1 °F 96% 30.08 in 5.0 mi Calm Calm - N/A   Scattered Clouds
2:55 AM 63.7 °F 62.6 °F 96% 30.08 in 4.0 mi NNW 3.5 mph - N/A   Scattered Clouds
3:15 AM 64.0 °F 63.0 °F 96% 30.08 in 5.0 mi Calm Calm - N/A   Overcast
3:35 AM 64.4 °F 63.5 °F 97% 30.09 in 5.0 mi Calm Calm - N/A   Overcast
3:55 AM 64.8 °F 63.7 °F 96% 30.10 in 5.0 mi NNW 3.5 mph - N/A   Overcast
4:15 AM 64.9 °F 63.9 °F 96% 30.11 in 5.0 mi Calm Calm - N/A   Overcast
4:35 AM 63.9 °F 62.6 °F 96% 30.12 in 4.0 mi North 8.1 mph - N/A   Overcast
4:55 AM 63.5 °F 62.2 °F 96% 30.12 in 2.0 mi North 5.8 mph - N/A   Overcast
5:15 AM 63.1 °F 62.1 °F 96% 30.12 in 0.8 mi NNE 6.9 mph - N/A   Overcast
5:35 AM 62.2 °F 61.2 °F 96% 30.13 in 3.0 mi NNE 6.9 mph - N/A   Overcast
5:55 AM 60.8 °F 59.7 °F 96% 30.14 in 4.0 mi NNE 8.1 mph - N/A   Overcast
6:15 AM 60.1 °F 58.8 °F 96% 30.15 in 5.0 mi NNE 8.1 mph - N/A   Overcast
6:35 AM 59.9 °F 57.4 °F 91% 30.15 in 10.0 mi NNE 9.2 mph - N/A   Overcast
6:55 AM 59.9 °F 56.3 °F 88% 30.14 in 10.0 mi NE 8.1 mph - N/A   Overcast
7:15 AM 59.9 °F 55.8 °F 86% 30.15 in 10.0 mi NE 9.2 mph - N/A   Overcast
7:35 AM 59.7 °F 55.0 °F 84% 30.16 in 10.0 mi NE 8.1 mph - N/A   Overcast
7:55 AM 59.5 °F 54.3 °F 83% 30.17 in 10.0 mi NNE 9.2 mph - N/A   Overcast
8:15 AM 59.2 °F 53.8 °F 82% 30.17 in 10.0 mi NE 9.2 mph - N/A   Overcast
8:35 AM 59.2 °F 52.9 °F 80% 30.17 in 10.0 mi NE 9.2 mph - N/A   Overcast
8:55 AM 59.5 °F 52.9 °F 79% 30.18 in 10.0 mi ENE 9.2 mph - N/A   Overcast
9:15 AM 59.9 °F 52.9 °F 78% 30.18 in 10.0 mi East 6.9 mph - N/A   Overcast
9:35 AM 59.9 °F 52.9 °F 78% 30.17 in 10.0 mi NE 6.9 mph - N/A   Overcast
9:55 AM 60.6 °F 53.1 °F 76% 30.18 in 10.0 mi NE 9.2 mph - N/A   Overcast
10:15 AM 62.1 °F 53.8 °F 74% 30.17 in 10.0 mi ENE 10.4 mph - N/A   Overcast
10:35 AM 62.6 °F 54.5 °F 75% 30.18 in 10.0 mi NE 8.1 mph - N/A   Overcast
10:55 AM 63.1 °F 55.4 °F 76% 30.18 in 10.0 mi NE 9.2 mph - N/A   Overcast
11:15 AM 63.3 °F 54.7 °F 73% 30.18 in 10.0 mi NNE 6.9 mph - N/A   Overcast
11:35 AM 63.9 °F 54.7 °F 72% 30.18 in 10.0 mi NNE 9.2 mph - N/A   Overcast
11:55 AM 64.6 °F 54.5 °F 70% 30.18 in 10.0 mi NNE 8.1 mph - N/A   Overcast
12:15 PM 65.5 °F 55.2 °F 69% 30.17 in 10.0 mi NNE 9.2 mph - N/A   Overcast
12:35 PM 66.2 °F 55.6 °F 69% 30.17 in 10.0 mi NE 10.4 mph - N/A   Overcast
12:55 PM 66.6 °F 55.4 °F 67% 30.16 in 10.0 mi ENE 8.1 mph - N/A   Overcast
1:15 PM 67.1 °F 56.5 °F 69% 30.17 in 10.0 mi North 5.8 mph - N/A   Overcast
1:55 PM 67.1 °F 56.3 °F 68% 30.16 in 10.0 mi ENE 5.8 mph - N/A   Overcast
2:15 PM 68.7 °F 57.4 °F 67% 30.15 in 10.0 mi East 5.8 mph - N/A   Overcast
2:35 PM 68.5 °F 57.2 °F 67% 30.13 in 10.0 mi ENE 5.8 mph - N/A   Overcast
2:55 PM 69.3 °F 57.4 °F 66% 30.13 in 10.0 mi East 6.9 mph - N/A   Overcast
3:15 PM 70.7 °F 59.0 °F 66% 30.12 in 10.0 mi ENE 8.1 mph - N/A   Scattered Clouds
3:35 PM 69.8 °F 59.4 °F 69% 30.12 in 10.0 mi East 5.8 mph - N/A   Scattered Clouds
3:55 PM 70.7 °F 59.7 °F 68% 30.12 in 10.0 mi Calm Calm - N/A   Mostly Cloudy
4:15 PM 71.1 °F 59.5 °F 67% 30.12 in 10.0 mi North 3.5 mph - N/A   Scattered Clouds
4:35 PM 70.9 °F 59.7 °F 68% 30.13 in 10.0 mi NNE 3.5 mph - N/A   Scattered Clouds
4:55 PM 70.7 °F 59.2 °F 67% 30.13 in 10.0 mi Calm Calm - N/A   Mostly Cloudy
5:15 PM 70.3 °F 59.7 °F 69% 30.13 in 10.0 mi Calm Calm - N/A   Mostly Cloudy
5:35 PM 70.2 °F 59.7 °F 69% 30.13 in 10.0 mi Calm Calm - N/A   Scattered Clouds
5:55 PM 70.0 °F 59.7 °F 70% 30.13 in 10.0 mi Calm Calm - N/A   Mostly Cloudy
6:15 PM 69.6 °F 59.9 °F 71% 30.13 in 10.0 mi Calm Calm - N/A   Mostly Cloudy
6:35 PM 68.2 °F 59.2 °F 73% 30.13 in 10.0 mi WNW 3.5 mph - N/A   Mostly Cloudy
6:55 PM 65.8 °F 59.9 °F 81% 30.12 in 10.0 mi WNW 3.5 mph - N/A   Scattered Clouds
7:15 PM 65.3 °F 59.4 °F 81% 30.12 in 10.0 mi WNW 3.5 mph - N/A   Clear
7:35 PM 64.2 °F 59.0 °F 83% 30.13 in 10.0 mi WNW 3.5 mph - N/A   Clear
7:55 PM 63.1 °F 59.9 °F 89% 30.13 in 10.0 mi Calm Calm - N/A   Clear
8:15 PM 63.3 °F 59.7 °F 88% 30.13 in 10.0 mi NNW 4.6 mph - N/A   Clear
8:35 PM 63.0 °F 59.4 °F 88% 30.13 in 10.0 mi NNW 3.5 mph - N/A   Clear
8:55 PM 62.8 °F 59.0 °F 87% 30.14 in 10.0 mi NW 3.5 mph - N/A   Clear
9:15 PM 62.6 °F 59.0 °F 88% 30.14 in 7.0 mi NNW 4.6 mph - N/A   Clear
9:35 PM 62.1 °F 59.2 °F 90% 30.15 in 7.0 mi NNW 4.6 mph - N/A   Clear
9:55 PM 61.7 °F 58.8 °F 90% 30.15 in 7.0 mi North 3.5 mph - N/A   Clear
10:15 PM 61.7 °F 57.7 °F 87% 30.14 in 7.0 mi NNE 6.9 mph - N/A   Clear
10:35 PM 62.2 °F 50.7 °F 66% 30.14 in 10.0 mi NNE 8.1 mph - N/A   Clear
10:55 PM 61.3 °F 49.6 °F 65% 30.15 in 10.0 mi NNE 6.9 mph - N/A   Clear
11:15 PM 61.9 °F 46.2 °F 56% 30.14 in 10.0 mi NNE 10.4 mph - N/A   Clear
11:35 PM 61.3 °F 46.0 °F 57% 30.15 in 10.0 mi NNE 8.1 mph - N/A   Clear
11:55 PM 60.3 °F 48.2 °F 64% 30.15 in 10.0 mi NNE 8.1 mph - N/A   Clear